[[{"header":{"parameterUnit":"m.s-1","parameterCategory":1,"la1":30.2991,"la2":30.254,"lo1":-89.0895,"lo2":-89.0444,"dy":0.0017,"dx":0.0017,"nx":28,"ny":28,"refTime":"2023-03-16T21:00:00:Z","depth":0,"parameterNumber":2,"parameterNumberName":"U-component_of_WINDS"},"data":[0,0,0,0,0,0,0,0,0,0,0,0,0,0,0,0,0,0,0,0,0,0,0,0,0,0,0,0,0,0,0,0,0,0,0,0,0,0,0,0,0,0,0,0,0,0,0,0,0,0,0,0,0,0,0,0,0,0,-0.5157,-0.5158,0,-0.5243,-0.5244,-0.5245,-0.5241,-0.524,-0.5238,-0.5237,-0.5327,-0.5331,-0.5334,0,0,0,0,0,0,0,0,0,0,0,0,0,-0.4989,-0.4992,-0.5157,-0.5158,-0.5159,-0.5243,-0.5244,-0.5245,-0.5241,-0.524,-0.5238,-0.5237,-0.5326,-0.533,-0.5335,0,0,0,0,0,0,0,0,0,0,0,0,0,-0.5067,-0.4993,-0.5156,-0.5167,-0.5169,-0.5243,-0.5244,-0.5246,-0.5241,-0.524,-0.5238,-0.5236,-0.5325,-0.533,-0.5335,-0.5405,0,0,-0.5351,-0.5354,0,0,0,0,0,0,0,0,-0.5063,-0.5073,-0.5164,-0.5166,-0.5168,-0.5229,-0.5218,-0.5299,-0.5242,-0.5214,-0.5237,-0.5235,-0.5296,-0.5304,-0.5324,-0.5409,-0.5413,-0.5352,-0.5355,-0.5357,-0.5359,0,0,0,0,0,0,0,-0.5057,-0.5069,-0.5191,-0.5166,-0.5168,-0.5167,-0.5176,-0.5233,-0.5264,-0.5216,-0.5216,-0.5226,-0.5297,-0.5319,-0.5326,-0.5414,-0.5352,-0.5357,-0.536,-0.5362,-0.5561,-0.5563,0,0,0,0,0,0,-0.5049,-0.5065,-0.5188,-0.5193,-0.511,-0.5172,-0.5182,-0.5212,-0.5264,-0.527,-0.5228,-0.5226,-0.5311,-0.532,-0.5329,-0.5415,-0.5357,-0.5362,-0.5365,-0.5558,-0.5561,-0.5563,0,0,0,0,0,0,-0.5046,-0.506,-0.5185,-0.5129,-0.5145,-0.5177,-0.521,-0.5214,-0.5236,-0.5273,-0.5278,-0.5244,-0.531,-0.5322,-0.5386,-0.5418,-0.5365,-0.537,-0.5556,-0.5559,-0.5562,-0.5586,0,0,0,0,0,0,-0.5041,-0.5059,-0.5086,-0.513,-0.5148,-0.524,-0.5212,-0.5217,-0.5245,-0.5243,-0.529,-0.5296,-0.5309,-0.5378,-0.5391,-0.5424,-0.5374,-0.5553,-0.5557,-0.5561,-0.5583,-0.559,-0.5596,0,0,0,0,0,-0.5035,-0.509,-0.5087,-0.5102,-0.5182,-0.5242,-0.5252,-0.5266,-0.5248,-0.5275,-0.5298,-0.5294,-0.5412,-0.5385,-0.54,-0.5435,-0.5551,-0.5556,-0.5561,-0.558,-0.5588,-0.5595,0,0,0,0,0,0,-0.505,-0.5096,-0.5094,-0.5164,-0.5199,-0.5241,-0.5276,-0.5275,-0.5316,-0.5313,-0.5329,-0.5339,-0.5404,-0.5425,-0.5394,-0.5504,-0.5479,-0.5487,-0.5489,-0.5497,-0.5503,-0.5498,-0.5378,0,0,0,0,0,-0.5061,-0.5105,-0.5143,-0.5202,-0.5219,-0.5244,-0.5271,-0.5278,-0.5315,-0.533,-0.5358,-0.5395,-0.544,-0.5469,-0.5513,-0.5585,-0.5595,-0.5616,-0.5623,-0.5628,-0.5635,-0.5675,-0.5685,-0.5579,-0.5579,-0.5579,0,0,-0.5085,-0.5116,-0.5143,-0.5205,-0.5233,-0.5279,-0.5257,-0.5306,-0.5341,-0.5338,-0.5401,-0.5422,-0.5463,-0.5532,-0.5563,-0.5552,-0.5666,-0.5634,-0.5638,-0.5642,-0.5681,-0.5691,-0.5699,-0.5582,-0.5581,-0.5581,0,0,-0.5153,-0.518,-0.5232,-0.526,-0.5302,-0.5318,-0.533,-0.5372,-0.5386,-0.5449,-0.5448,-0.5488,-0.5566,-0.5595,-0.5621,-0.5697,-0.5695,-0.5711,-0.5746,-0.5784,-0.5793,-0.58,-0.5828,-0.5838,-0.5718,-0.5718,-0.5718,0,-0.5178,-0.5247,-0.5259,-0.5309,-0.5336,-0.5334,-0.5387,-0.5414,-0.5468,-0.5487,-0.5473,-0.5569,-0.5597,-0.5673,-0.5691,-0.5711,-0.5726,-0.5707,-0.579,-0.5798,-0.5805,-0.5832,-0.5843,-0.5719,-0.5719,-0.5719,-0.5719,0,-0.5276,-0.5323,-0.536,-0.5412,-0.5443,-0.5494,-0.5514,-0.5544,-0.5548,-0.5566,-0.5629,-0.5662,-0.5712,-0.573,-0.5735,-0.5806,-0.5798,-0.5787,-0.5762,-0.5817,-0.5842,-0.5853,-0.5722,-0.5721,-0.5721,-0.572,0,0,-0.5358,-0.5414,-0.5428,-0.5451,-0.5496,-0.5533,-0.5583,-0.5632,-0.5658,-0.5694,-0.5737,-0.5802,-0.5792,-0.582,-0.5828,-0.5862,-0.5921,-0.5846,-0.5848,-0.586,-0.6001,-0.6011,-0.6022,-0.5919,-0.5921,-0.5922,-0.5998,0,-0.5431,-0.552,-0.5532,-0.5611,-0.5655,-0.5654,-0.5697,-0.573,-0.5747,-0.5787,-0.5806,-0.5852,-0.5834,-0.5852,-0.5885,-0.5907,-0.595,-0.5901,-0.596,-0.5962,-0.5951,-0.6036,-0.6046,-0.6116,-0.6008,-0.601,-0.6011,0,-0.5529,-0.5568,-0.5652,-0.569,-0.5709,-0.5748,-0.5793,-0.5831,-0.5868,-0.5878,-0.5909,-0.5912,-0.5964,-0.5935,-0.6007,-0.5974,-0.5998,-0.6013,-0.6016,-0.6023,-0.5991,-0.6047,-0.6139,-0.615,-0.6027,-0.6026,-0.6025,0,-0.5582,-0.5655,-0.5714,-0.5734,-0.578,-0.5808,-0.5828,-0.5863,-0.5891,-0.593,-0.5948,-0.5992,-0.6017,-0.6051,-0.6067,-0.6044,-0.6138,-0.6111,-0.6148,-0.6148,-0.617,-0.6169,-0.6269,-0.6183,-0.6183,-0.6183,-0.6182,0,-0.5663,-0.5715,-0.5738,-0.5775,-0.5832,-0.5845,-0.5901,-0.5921,-0.5951,-0.5992,-0.5992,-0.603,-0.6047,-0.6088,-0.61,-0.6158,-0.6169,-0.6179,-0.6182,-0.618,-0.6179,-0.6197,-0.6193,-0.6185,-0.6185,-0.6184,-0.6184,0,-0.5733,-0.575,-0.5815,-0.5853,-0.5864,-0.5904,-0.5937,-0.5972,-0.5988,-0.604,-0.6052,-0.6078,-0.6125,-0.6143,-0.6201,-0.6209,-0.6277,-0.6275,-0.6265,-0.6266,-0.6303,-0.63,-0.642,-0.6436,-0.6338,-0.6339,-0.634,0,-0.5785,-0.5824,-0.5866,-0.5893,-0.5914,-0.5957,-0.5985,-0.5998,-0.6028,-0.6071,-0.6102,-0.6149,-0.6188,-0.6264,-0.6288,-0.6332,-0.6332,-0.6371,-0.6339,-0.6336,-0.6334,-0.6332,-0.6336,-0.6378,-0.6379,-0.6379,-0.638,0,-0.5875,-0.5881,-0.5922,-0.5965,-0.5999,-0.6033,-0.6067,-0.6089,-0.6107,-0.614,-0.6188,-0.6218,-0.6277,-0.6324,-0.6369,-0.639,-0.6389,-0.6389,-0.6401,-0.64,-0.6393,-0.6398,-0.6282,-0.6387,-0.6387,-0.6386,-0.6386,-0.6385,-0.5938,-0.5973,-0.6008,-0.6053,-0.6079,-0.611,-0.6145,-0.6165,-0.6205,-0.6254,-0.6259,-0.6311,-0.6345,-0.6406,-0.6429,-0.647,-0.6459,-0.6476,-0.648,-0.6484,-0.6487,-0.6385,-0.6478,-0.6478,-0.6477,-0.6477,-0.6477,0,-0.603,-0.6051,-0.6092,-0.6139,-0.6174,-0.6168,-0.6204,-0.6234,-0.628,-0.6312,-0.635,-0.6405,-0.645,-0.6476,-0.6522,-0.6549,-0.655,-0.6561,-0.656,-0.6565,-0.6494,-0.648,-0.656,-0.656,-0.656,-0.656,-0.656,-0.656,-0.6082,-0.614,-0.615,-0.6222,-0.6243,-0.6294,-0.6316,-0.6344,-0.637,-0.6431,-0.6469,-0.6485,-0.6515,-0.6562,-0.6603,-0.6609,-0.6627,-0.6639,-0.6645,-0.6578,-0.657,-0.6562,-0.6549,-0.6642,-0.6643,-0.6713,-0.6714,-0.6714]},{"header":{"parameterUnit":"m.s-1","parameterCategory":1,"la1":30.2991,"la2":30.254,"lo1":-89.0895,"lo2":-89.0444,"dy":0.0017,"dx":0.0017,"nx":28,"ny":28,"refTime":"2023-03-16T21:00:00:Z","depth":0,"parameterNumber":3,"parameterNumberName":"V-component_of_WINDS"},"data":[0,0,0,0,0,0,0,0,0,0,0,0,0,0,0,0,0,0,0,0,0,0,0,0,0,0,0,0,0,0,0,0,0,0,0,0,0,0,0,0,0,0,0,0,0,0,0,0,0,0,0,0,0,0,0,0,0,0,-8.4415,-8.4416,0,-8.457,-8.4572,-8.4574,-8.4483,-8.4479,-8.4475,-8.447,-8.4622,-8.463,-8.4638,0,0,0,0,0,0,0,0,0,0,0,0,0,-8.4033,-8.404,-8.4415,-8.4417,-8.4419,-8.457,-8.4572,-8.4574,-8.4484,-8.4479,-8.4473,-8.4468,-8.462,-8.4629,-8.4639,0,0,0,0,0,0,0,0,0,0,0,0,0,-8.4194,-8.4043,-8.4414,-8.4392,-8.4392,-8.4569,-8.4572,-8.4575,-8.4485,-8.4479,-8.4472,-8.4466,-8.4617,-8.4628,-8.464,-8.4847,0,0,-8.4678,-8.4683,0,0,0,0,0,0,0,0,-8.4185,-8.4208,-8.4393,-8.4394,-8.4394,-8.4501,-8.4493,-8.4666,-8.4487,-8.4449,-8.447,-8.4463,-8.4587,-8.4601,-8.4644,-8.4854,-8.486,-8.4679,-8.4686,-8.4691,-8.4695,0,0,0,0,0,0,0,-8.4174,-8.4201,-8.4476,-8.4396,-8.4396,-8.4372,-8.4388,-8.4525,-8.4553,-8.4452,-8.4446,-8.4466,-8.4586,-8.4633,-8.4647,-8.4863,-8.4678,-8.4689,-8.4697,-8.4702,-8.5249,-8.5256,0,0,0,0,0,0,-8.4166,-8.4193,-8.4471,-8.448,-8.4272,-8.4384,-8.4402,-8.4473,-8.4551,-8.4557,-8.4471,-8.4461,-8.4615,-8.4633,-8.4652,-8.4899,-8.4691,-8.4703,-8.471,-8.5242,-8.525,-8.5258,0,0,0,0,0,0,-8.4158,-8.4191,-8.4465,-8.4335,-8.4368,-8.4398,-8.4478,-8.4479,-8.4527,-8.4566,-8.4569,-8.4515,-8.4611,-8.4635,-8.48,-8.4903,-8.4708,-8.4719,-8.5233,-8.5244,-8.5254,-8.5395,0,0,0,0,0,0,-8.4147,-8.4189,-8.427,-8.4338,-8.4375,-8.4612,-8.4485,-8.4487,-8.4549,-8.4537,-8.4608,-8.4613,-8.4607,-8.4782,-8.4812,-8.4916,-8.4729,-8.5224,-8.5238,-8.5251,-8.5381,-8.5409,-8.5433,0,0,0,0,0,-8.4134,-8.4301,-8.4274,-8.4308,-8.4477,-8.4618,-8.4639,-8.4632,-8.4557,-8.4638,-8.4662,-8.4611,-8.4887,-8.48,-8.4832,-8.4942,-8.5217,-8.5234,-8.525,-8.5369,-8.5404,-8.5433,0,0,0,0,0,0,-8.4242,-8.431,-8.428,-8.4475,-8.4542,-8.4603,-8.4704,-8.4668,-8.4755,-8.474,-8.4724,-8.4741,-8.4913,-8.4943,-8.4845,-8.5146,-8.504,-8.5064,-8.512,-8.5153,-8.5178,-8.5167,-8.4739,0,0,0,0,0,-8.4289,-8.4401,-8.4453,-8.4619,-8.4655,-8.4674,-8.4735,-8.4723,-8.4791,-8.4818,-8.4855,-8.492,-8.5021,-8.5088,-8.5184,-8.5385,-8.5398,-8.5476,-8.5502,-8.5523,-8.5544,-8.5652,-8.5687,-8.5312,-8.5311,-8.5311,0,0,-8.4386,-8.4437,-8.4508,-8.4643,-8.4693,-8.4807,-8.4698,-8.4823,-8.4907,-8.4836,-8.4995,-8.5024,-8.5095,-8.5279,-8.5362,-8.531,-8.5651,-8.5544,-8.5561,-8.557,-8.5673,-8.5708,-8.574,-8.5323,-8.5321,-8.5319,0,0,-8.4622,-8.4672,-8.4817,-8.487,-8.4949,-8.496,-8.4995,-8.5062,-8.508,-8.5239,-8.5188,-8.5286,-8.5461,-8.5515,-8.5565,-8.5821,-8.5777,-8.5852,-8.5988,-8.6094,-8.6124,-8.615,-8.6241,-8.6274,-8.5873,-8.5873,-8.5873,0,-8.4733,-8.4905,-8.4895,-8.5025,-8.5085,-8.5029,-8.5174,-8.5225,-8.533,-8.5372,-8.5313,-8.5532,-8.5576,-8.5771,-8.5834,-8.5877,-8.5915,-8.5844,-8.6121,-8.6147,-8.6171,-8.6258,-8.6292,-8.5882,-8.5881,-8.588,-8.5879,0,-8.5037,-8.5157,-8.5264,-8.537,-8.5441,-8.5578,-8.5587,-8.5661,-8.5643,-8.566,-8.5822,-8.5873,-8.5978,-8.6024,-8.6006,-8.6217,-8.6182,-8.6123,-8.6016,-8.6216,-8.6297,-8.633,-8.5894,-8.5891,-8.5888,-8.5886,0,0,-8.5346,-8.5445,-8.5485,-8.5532,-8.5614,-8.5706,-8.5839,-8.5944,-8.6007,-8.6081,-8.6192,-8.6341,-8.6287,-8.6344,-8.6331,-8.6424,-8.6624,-8.6352,-8.6354,-8.6401,-8.6859,-8.6904,-8.6943,-8.6595,-8.6601,-8.6606,-8.6853,0,-8.5587,-8.5824,-8.5819,-8.6037,-8.6148,-8.6095,-8.6211,-8.6273,-8.6293,-8.6387,-8.6406,-8.6514,-8.6433,-8.6467,-8.6557,-8.6581,-8.6716,-8.6563,-8.6696,-8.6701,-8.6681,-8.6985,-8.7034,-8.7264,-8.6885,-8.689,-8.6894,0,-8.5901,-8.5988,-8.6219,-8.6286,-8.6331,-8.6436,-8.6532,-8.6623,-8.6692,-8.6699,-8.6764,-8.6737,-8.687,-8.676,-8.6942,-8.6838,-8.6892,-8.6912,-8.6921,-8.6933,-8.681,-8.7006,-8.7337,-8.7372,-8.6944,-8.694,-8.6936,0,-8.6104,-8.6278,-8.6439,-8.6481,-8.6563,-8.6637,-8.6674,-8.6736,-8.68,-8.6883,-8.6923,-8.702,-8.7072,-8.7146,-8.7145,-8.7065,-8.733,-8.722,-8.7339,-8.7339,-8.7397,-8.7394,-8.7742,-8.7432,-8.7431,-8.743,-8.743,0,-8.6375,-8.6518,-8.6531,-8.663,-8.6788,-8.678,-8.6936,-8.6965,-8.7021,-8.7123,-8.7082,-8.7178,-8.7171,-8.7267,-8.7267,-8.7418,-8.7441,-8.745,-8.7448,-8.7454,-8.7453,-8.749,-8.7474,-8.7439,-8.7437,-8.7436,-8.7434,0,-8.6628,-8.6643,-8.6815,-8.6879,-8.6898,-8.7012,-8.7065,-8.7158,-8.7174,-8.7303,-8.7333,-8.7357,-8.7468,-8.7475,-8.7602,-8.7602,-8.7786,-8.7766,-8.7764,-8.776,-8.7879,-8.7868,-8.8263,-8.8314,-8.797,-8.7973,-8.7976,0,-8.68,-8.691,-8.6986,-8.7053,-8.7095,-8.7202,-8.7268,-8.7263,-8.7332,-8.7418,-8.7501,-8.7609,-8.7695,-8.7875,-8.7902,-8.7999,-8.7981,-8.8113,-8.7996,-8.7998,-8.7984,-8.7978,-8.7988,-8.8136,-8.814,-8.8143,-8.8146,0,-8.7104,-8.7107,-8.7204,-8.7305,-8.7384,-8.7462,-8.7534,-8.7591,-8.7594,-8.7673,-8.7789,-8.7856,-8.7987,-8.8094,-8.8189,-8.8224,-8.8186,-8.8183,-8.8215,-8.8223,-8.8217,-8.8222,-8.7827,-8.8174,-8.8171,-8.8169,-8.8167,-8.8166,-8.7323,-8.7418,-8.7487,-8.7596,-8.7651,-8.7719,-8.781,-8.7838,-8.7935,-8.8044,-8.8034,-8.8161,-8.8225,-8.8349,-8.8392,-8.8489,-8.8444,-8.8491,-8.8503,-8.8515,-8.8528,-8.8202,-8.8506,-8.8505,-8.8505,-8.8504,-8.8503,0,-8.7625,-8.7667,-8.7768,-8.7872,-8.7958,-8.7917,-8.7994,-8.8068,-8.8182,-8.8246,-8.8333,-8.8464,-8.8568,-8.8604,-8.8704,-8.8775,-8.876,-8.8802,-8.8797,-8.8805,-8.8563,-8.8525,-8.8812,-8.8812,-8.8812,-8.8812,-8.8812,-8.8812,-8.7793,-8.7951,-8.7962,-8.8146,-8.8186,-8.8313,-8.8361,-8.8423,-8.8475,-8.8625,-8.8712,-8.8735,-8.8788,-8.8892,-8.8984,-8.8992,-8.9031,-8.908,-8.908,-8.8853,-8.8822,-8.8793,-8.8757,-8.9089,-8.9089,-8.9315,-8.9317,-8.9318]}]]